Volver al catálogo

STARLINK-35040

ActivoComunicacionesVLEO
NORAD 65480·PAYLOAD·🇺🇸 United States

Lanzado Sep 3, 2025 desde Cape Canaveral Space Force Station

Loading…

Próximos Pases (próximas 24 horas)

TLE

ActualizadoSource: CelesTrak SupGP

Época: Sep 14, 2026, 14:21 UTC

1 65480C 25195Y   26257.59840278  .00006725  00000+0  19881-3 0  2576
2 65480  53.1576  97.0341 0000994  75.8668  82.3495 15.34366329    12

Sigue STARLINK-35040 en tiempo real con AllMySat

Download on the App Store